Weather History for KDRM - April, 2013

Change the Weather History Date:

Thursday, April 18, 2013

  Actual Average (KCIU) Record (KCIU)
Temperature  
Mean Temperature 38 °F -  
Max Temperature 40 °F 47 °F 71 °F (2005)
Min Temperature 35 °F 23 °F 9 °F (1983)
Degree Days  
Heating Degree Days 28    
Moisture  
Dew Point 36 °F    
Average Humidity 95    
Maximum Humidity 100    
Minimum Humidity 64    
Precipitation  
Precipitation 0.00 in - - ()
Sea Level Pressure  
Sea Level Pressure 29.74 in    
Wind  
Wind Speed 5 mph (East)    
Max Wind Speed 9 mph    
Max Gust Speed 16 mph    
Visibility 7 miles    
Events Fog , Rain    
Averages and records for this station are not official NWS values.
T = Trace of Precipitation, MM = Missing Value Source: NWS Daily Summary

Daily Weather History Graph

Daily Weather History Graph

Search for Another Location

Airport or City:

Trip Planner

Search our weather history database for the weather conditions in past years. The results will help you decide how hot, cold, wet, or windy it might be!

Date:

Astronomy

Apr. 18, 2013 Rise Set
Actual Time 6:42 AM EDT 8:26 PM EDT
Civil Twilight 6:11 AM EDT 8:58 PM EDT
Nautical Twilight 5:32 AM EDT 9:36 PM EDT
Astronomical Twilight 4:51 AM EDT 10:18 PM EDT
Moon 12:50 PM EDT (4/18) 2:44 AM EDT (4/18)
Length of Visible Light 14h 46m
Length of Day
13h 43m
First Quarter, 51% of the Moon is Illuminated
Apr 18
First Quarter
Apr 25
Full
May 2
Last Quarter
May 9
New
May 18
First Quarter

Hourly Weather History & Observations

Time (EDT) Temp. Windchill Dew Point Humidity Pressure Visibility Wind Dir Wind Speed Gust Speed Precip Events Conditions
12:15 AM 37.9 °F 34.4 °F 27.1 °F 65% 30.16 in 10.0 mi ESE 4.6 mph - N/A   Overcast
12:35 AM 37.8 °F 33.3 °F 26.6 °F 64% 30.13 in 10.0 mi East 5.8 mph - N/A   Overcast
12:55 AM 37.9 °F 34.4 °F 27.5 °F 66% 30.13 in 10.0 mi East 4.6 mph - N/A   Overcast
1:15 AM 37.9 °F 33.5 °F 28.6 °F 69% 30.11 in 10.0 mi East 5.8 mph - N/A   Overcast
1:35 AM 37.6 °F 34.0 °F 29.7 °F 73% 30.09 in 10.0 mi East 4.6 mph - N/A   Overcast
1:55 AM 37.6 °F 35.1 °F 30.6 °F 76% 30.08 in 10.0 mi NE 3.5 mph - N/A   Overcast
2:15 AM 37.4 °F 34.9 °F 31.1 °F 78% 30.07 in 10.0 mi ENE 3.5 mph - N/A   Overcast
2:35 AM 36.3 °F 32.5 °F 31.8 °F 84% 30.06 in 7.0 mi East 4.6 mph - N/A   Light Drizzle
2:55 AM 35.2 °F 31.2 °F 33.1 °F 92% 30.04 in 5.0 mi ENE 4.6 mph - N/A   Light Drizzle
3:15 AM 35.6 °F 31.7 °F 34.2 °F 94% 30.02 in 10.0 mi East 4.6 mph - N/A   Overcast
3:36 AM 36.1 °F 32.3 °F 32.0 °F 85% 30.02 in 10.0 mi East 4.6 mph - N/A   Overcast
3:55 AM 36.9 °F 33.1 °F 31.8 °F 82% 30.00 in 10.0 mi East 4.6 mph - N/A   Overcast
4:15 AM 37.4 °F 31.4 °F 31.8 °F 80% 29.99 in 10.0 mi East 8.1 mph - N/A   Overcast
4:35 AM 36.9 °F 30.7 °F 32.4 °F 84% 29.97 in 7.0 mi East 8.1 mph 16.1 mph N/A   Overcast
4:55 AM 36.3 °F 30.8 °F 32.7 °F 87% 29.95 in 5.0 mi ESE 6.9 mph - N/A   Overcast
5:15 AM 35.6 °F 29.9 °F 33.6 °F 92% 29.93 in 5.0 mi East 6.9 mph - N/A   Overcast
5:35 AM 35.1 °F 30.1 °F 34.2 °F 97% 29.91 in 3.0 mi ESE 5.8 mph - N/A Rain Light Rain
5:55 AM 35.2 °F 29.5 °F 34.9 °F 99% 29.91 in 4.0 mi ESE 6.9 mph - N/A   Light Drizzle
6:15 AM 35.6 °F 29.9 °F 35.2 °F 99% 29.90 in 3.0 mi East 6.9 mph - N/A Rain Rain
6:35 AM 35.8 °F 30.9 °F 35.8 °F 100% 29.88 in 2.5 mi East 5.8 mph - N/A   Light Drizzle
6:55 AM 35.1 °F 30.1 °F 35.1 °F 100% 29.87 in 1.8 mi East 5.8 mph - N/A Rain Light Rain
7:15 AM 35.2 °F 28.8 °F 35.2 °F 100% 29.86 in 1.8 mi East 8.1 mph - N/A Rain Rain
7:35 AM 35.2 °F 30.3 °F 35.2 °F 100% 29.85 in 3.0 mi East 5.8 mph - N/A Rain Light Rain
7:55 AM 35.2 °F 30.3 °F 35.2 °F 100% 29.84 in 3.0 mi East 5.8 mph - N/A Rain Rain
8:16 AM 35.1 °F 29.3 °F 35.1 °F 100% 29.82 in 4.0 mi East 6.9 mph - N/A Rain Light Rain
8:35 AM 35.2 °F 30.3 °F 35.2 °F 100% 29.79 in 7.0 mi East 5.8 mph - N/A Rain Rain
8:55 AM 35.2 °F 29.5 °F 35.2 °F 100% 29.77 in 10.0 mi East 6.9 mph - N/A   Drizzle
9:16 AM 35.6 °F 30.7 °F 35.6 °F 100% 29.75 in 10.0 mi East 5.8 mph - N/A Rain Light Rain
9:35 AM 35.6 °F 28.6 °F 35.6 °F 100% 29.73 in 10.0 mi East 9.2 mph - N/A   Light Drizzle
9:55 AM 35.6 °F 30.7 °F 35.6 °F 100% 29.73 in 10.0 mi East 5.8 mph - N/A   Light Drizzle
10:15 AM 35.6 °F 30.7 °F 35.6 °F 100% 29.73 in 7.0 mi East 5.8 mph - N/A Rain Rain
10:35 AM 35.6 °F 31.7 °F 35.6 °F 100% 29.72 in 7.0 mi ENE 4.6 mph - N/A Rain Rain
10:55 AM 35.6 °F 29.9 °F 35.6 °F 100% 29.70 in 7.0 mi ENE 6.9 mph - N/A Rain Light Rain
11:15 AM 35.8 °F 30.1 °F 35.8 °F 100% 29.70 in 5.0 mi East 6.9 mph - N/A Rain Light Rain
11:35 AM 36.5 °F 31.0 °F 36.5 °F 100% 29.68 in 10.0 mi ENE 6.9 mph - N/A   Light Drizzle
11:55 AM 36.7 °F 30.5 °F 36.7 °F 100% 29.67 in 10.0 mi East 8.1 mph - N/A   Overcast
12:15 PM 36.5 °F 30.3 °F 36.5 °F 100% 29.66 in 10.0 mi East 8.1 mph - N/A Rain Light Rain
12:35 PM 36.5 °F 31.8 °F 36.5 °F 100% 29.65 in 4.0 mi ENE 5.8 mph - N/A Rain Rain
12:55 PM 36.5 °F 31.0 °F 36.5 °F 100% 29.63 in 5.0 mi NE 6.9 mph - N/A Rain Light Rain
1:15 PM 36.5 °F 31.0 °F 36.5 °F 100% 29.62 in 3.0 mi ENE 6.9 mph - N/A Rain Rain
1:35 PM 36.7 °F 29.9 °F 36.7 °F 100% 29.62 in 4.0 mi East 9.2 mph - N/A Rain Light Rain
1:55 PM 36.9 °F 31.4 °F 36.9 °F 100% 29.59 in 2.5 mi East 6.9 mph - N/A Rain Rain
2:15 PM 37.0 °F 32.4 °F 37.0 °F 100% 29.57 in 5.0 mi East 5.8 mph - N/A Rain Light Rain
2:36 PM 37.4 °F 30.8 °F 37.4 °F 100% 29.55 in 5.0 mi East 9.2 mph - N/A Rain Light Rain
2:55 PM 37.4 °F 31.4 °F 37.4 °F 100% 29.54 in 7.0 mi East 8.1 mph - N/A Rain Light Rain
3:15 PM 37.9 °F 34.4 °F 37.9 °F 100% 29.54 in 10.0 mi East 4.6 mph - N/A Rain Light Rain
3:35 PM 38.8 °F 33.8 °F 38.8 °F 100% 29.53 in 10.0 mi East 6.9 mph - N/A Rain Light Rain
3:55 PM 38.7 °F 35.2 °F 38.7 °F 100% 29.56 in 10.0 mi ENE 4.6 mph - N/A   Overcast
4:35 PM 38.3 °F 34.8 °F 38.3 °F 100% 29.55 in 10.0 mi ENE 4.6 mph - N/A   Overcast
5:16 PM 38.3 °F 34.8 °F 38.3 °F 100% 29.55 in 10.0 mi East 4.6 mph - N/A   Overcast
5:35 PM 38.3 °F 33.9 °F 38.3 °F 100% 29.53 in 10.0 mi East 5.8 mph - N/A   Overcast
5:55 PM 38.5 °F 35.0 °F 38.5 °F 100% 29.53 in 10.0 mi ENE 4.6 mph - N/A   Overcast
6:16 PM 38.7 °F - 38.7 °F 100% 29.55 in 10.0 mi Calm Calm - N/A   Overcast
6:35 PM 38.7 °F - 38.7 °F 100% 29.58 in 10.0 mi Calm Calm - N/A   Overcast
6:55 PM 38.7 °F - 38.7 °F 100% 29.57 in 10.0 mi Calm Calm - N/A   Overcast
7:15 PM 38.5 °F 36.1 °F 38.5 °F 100% 29.55 in 10.0 mi ENE 3.5 mph - N/A   Overcast
7:35 PM 39.0 °F - 39.0 °F 100% 29.56 in 10.0 mi Calm Calm - N/A   Overcast
7:55 PM 39.2 °F - 39.2 °F 100% 29.57 in 5.0 mi Calm Calm - N/A   Overcast
8:15 PM 39.4 °F - 39.4 °F 100% 29.58 in 0.5 mi Calm Calm - N/A Fog Fog
8:35 PM 38.8 °F 35.4 °F 38.8 °F 100% 29.56 in 0.2 mi NE 4.6 mph - N/A Fog Fog
8:55 PM 39.2 °F 35.9 °F 39.2 °F 100% 29.55 in 0.8 mi ENE 4.6 mph - N/A   Overcast
9:15 PM 39.4 °F 36.1 °F 39.4 °F 100% 29.54 in 1.5 mi ENE 4.6 mph - N/A   Overcast
9:35 PM 39.4 °F 36.1 °F 39.4 °F 100% 29.54 in 1.0 mi East 4.6 mph - N/A   Overcast
9:55 PM 39.4 °F 35.2 °F 39.4 °F 100% 29.53 in 1.2 mi East 5.8 mph - N/A   Overcast
10:15 PM 39.6 °F 36.3 °F 39.6 °F 100% 29.54 in 2.0 mi East 4.6 mph - N/A   Overcast
10:35 PM 39.4 °F 36.1 °F 39.4 °F 100% 29.53 in 3.0 mi East 4.6 mph - N/A   Overcast
10:56 PM 39.4 °F 34.5 °F 39.4 °F 100% 29.52 in 2.5 mi East 6.9 mph - N/A Rain Light Rain
11:35 PM 40.1 °F 34.7 °F 40.1 °F 100% 29.50 in 10.0 mi East 8.1 mph - N/A   Overcast
11:55 PM 40.1 °F 36.1 °F 40.1 °F 100% 29.47 in 10.0 mi ENE 5.8 mph 16.1 mph N/A   Overcast